SCP
0 0 0 0 0 0 0 0 0 0 0 0 0 0 0 0 0 0 0 0 0 0 0 0 0 0 0 0 0 0 0 0 0 0 0 0 0 0 0 0 0 0 0
0 0 0 0 0 0 0 0 0 0 0 0 0 0 0 0 0 0 0 0 0 0 0 0 0 0 0 0 0 0 0 0 0 0 0 0 0 0 0 0 0 0 0
0 0 0 0 0 0 0 0 0 0 0 0 0 0 0 0 0 0 0 0 0 0 0 0 0 0 0 0 0 0 0 0 0 0 0 0 0 0 0 0 0 0 0
0 0 0 0 0 0 0 0 0 0 0 0 0 0 0 0 0 0 0 0 0 0 0 0 0 0 0 0 0 0 0 0 0 0 0 0 0 0 0 0 0 0 0
0 0 0 0 0 0 0 0 0 0 0 0 0 0 0 0 0 0 0 0 0 0 0 0 0 0 0 0 0 0 0 0 0 0 0 0 0 0 0 0 0 0 0
0 0 0 0 0 0 0 0 0 0 0 0 0 0 0 0 0 0 0 0 0 0 0 0 0 0 0 0 0 0 0 0 0 0 0 0 0 0 0 0 0 0 0
0 0 0 0 0 0 0 0 0 0 0 0 0 0 0 0 0 0 0 0 0 0 0 0 0 0 0 0 0 0 0 0 0 0 0 0 0 0 0 0 0 0 0
0 0 0 0 0 0 0 0 0 0 0 0 0 0 0 0 0 0 0 0 0 0 0 0 0 0 0 0 0 0 0 0 0 0 0 0 0 0 0 0 0 0 0
0 0 0 0 0 0 0 0 0 0 0 0 0 0 0 0 0 0 0 0 0 0 0 0 0 0 0 0 0 0 0 0 0 0 0 0 0 0 0 0 0 0 0
0 0 0 0 0 0 0 0 0 0 0 0 0 0 0 0 0 0 0 0 0 0 0 0 0 0 0 0 0 0 0 0 0 0 0 0 0 0 0 0 0 0 0
0 0 0 0 0 0 0 0 0 0 0 0 0 0 0 0 0 0 0 0 0 0 0 0 0 0 0 0 0 0 0 0 0 0 0 0 0 0 0 0 0 0 0
0 0 0 0 0 0 0 0 0 0 0 0 0 0 0 0 0 0 0 0 0 0 0 0 0 0 0 0 0 0 0 0 0 0 0 0 0 0 0 0 0 0 0
0 0 0 0 0 0 0 0 0 0 0 0 0 0 0 0 0 0 0 0 0 0 0 0 0 0 0 0 0 0 0 0 0 0 0 0 0 0 0 0 0 0 0
0 0 0 0 0 0 0 0 0 0 0 0 0 0 0 0 0 0 0 0 0 0 0 0 0 0 0 0 0 0 0 0 0 0 0 0 0 0 0 0 0 0 0
0 0 0 0 0 0 0 0 0 0 0 0 0 0 0 0 0 0 0 0 0 0 0 0 0 0 0 0 0 0 0 0 0 0 0 0 0 0 0 0 0 0 0
0 0 0 0 0 0 0 0 0 0 0 0 0 0 0 0 0 0 0 0 0 0 0 0 0 0 0 0 0 0 0 0 0 0 0 0 0 0 0 0 0 0 0
0 0 0 0 0 0 0 0 0 0 0 0 0 0 0 0 0 0 0 0 0 0 0 0 0 0 0 0 0 0 0 0 0 0 0 0 0 0 0 0 0 0 0
0 0 0 0 0 0 0 0 0 0 0 0 0 0 0 0 0 0 0 0 0 0 0 0 0 0 0 0 0 0 0 0 0 0 0 0 0 0 0 0 0 0 0
0 0 0 0 0 0 0 0 0 0 0 0 0 0 0 0 0 0 0 0 0 0 0 0 0 0 0 0 0 0 0 0 0 0 0 0 0 0 0 0 0 0 0
0 0 0 0 0 0 0 0 0 0 0 0 0 0 0 0 0 0 0 0 0 0 0 0 0 0 0 0 0 0 0 0 0 0 0 0 0 0 0 0 0 0 0
0 0 0 0 0 0 0 0 0 0 0 0 0 0 0 0 0 0 0 0 0 0 0 0 0 0 0 0 0 0 0 0 0 0 0 0 0 0 0 0 0 0 0
0 0 0 0 0 0 0 0 0 0 0 0 0 0 0 0 0 0 0 0 0 0 0 0 0 0 0 0 0 0 0 0 0 0 0 0 0 0 0 0 0 0 0
0 0 0 0 0 0 0 0 0 0 0 0 0 0 0 0 0 0 0 0 0 0 0 0 0 0 0 0 0 0 0 0 0 0 0 0 0 0 0 0 0 0 0
0 0 0 0 0 0 0 0 0 0 0 0 0 0 0 0 0 0 0 0 0 0 0 0 0 0 0 0 0 0 0 0 0 0 0 0 0 0 0 0 0 0 0
0 0 0 0 0 0 0 0 0 0 0 0 0 0 0 0 0 0 0 0 0 0 0 0 0 0 0 0 0 0 0 0 0 0 0 0 0 0 0 0 0 0 0
0 0 0 0 0 0 0 0 0 0 0 0 0 0 0 0 0 0 0 0 0 0 0 0 0 0 0 0 0 0 0 0 0 0 0 0 0 0 0 0 0 0 0
Wind_Speed_500mb
72 77 75 70 68 66 66 68 66 65 60 60 59 58 57 60 61 62 55 56 52 50 50 48 46 46 42 40 36 34 30 32 35 33 29 24 16 11 8 7 7 10 16
55 58 59 57 57 58 59 62 61 59 60 60 63 66 63 64 62 65 59 60 57 54 54 50 50 47 42 42 34 31 31 32 34 31 28 22 18 16 12 9 9 11 15
38 43 46 49 50 50 52 54 54 55 57 59 57 62 61 63 61 61 59 56 54 54 55 55 51 45 45 39 34 34 33 34 32 28 25 23 23 17 13 8 11 15 19
31 35 39 41 44 46 48 51 56 58 58 56 55 53 56 49 60 57 53 53 51 53 54 51 48 45 41 37 37 36 35 35 32 28 26 25 21 16 11 8 9 16 21
27 34 35 38 40 44 45 45 46 47 46 47 50 48 47 54 56 52 53 53 54 54 55 53 49 45 44 42 40 37 36 36 33 29 27 24 19 15 9 9 11 16 21
28 30 31 33 34 36 37 37 40 42 45 47 45 45 50 50 57 54 54 53 57 58 58 55 51 49 49 45 42 40 38 35 33 30 26 22 17 11 9 9 11 14 17
30 30 32 31 33 33 34 36 39 41 41 39 43 50 50 49 51 55 56 57 60 62 59 56 55 53 51 49 46 43 42 38 34 30 26 21 16 13 10 10 13 17 21
29 33 34 35 36 38 39 41 41 42 43 44 49 55 52 53 56 56 57 58 60 62 59 57 55 53 53 51 48 46 44 40 38 34 29 25 20 16 13 10 11 16 21
32 38 42 42 41 42 43 41 42 42 42 43 49 52 54 55 57 57 59 59 61 62 60 58 57 55 53 51 49 49 46 43 39 33 32 28 23 21 16 12 13 16 20
44 43 44 43 43 41 39 40 41 42 44 46 51 54 55 55 57 57 56 57 60 63 63 61 60 58 55 53 51 51 47 45 37 39 38 34 29 24 18 14 16 16 20
34 38 38 39 38 37 38 40 40 42 45 49 52 54 57 55 55 55 56 55 58 64 65 65 64 62 60 56 53 52 48 42 39 48 44 38 34 28 21 21 21 19 19
18 22 23 25 28 31 35 37 39 41 43 47 49 54 54 56 54 53 56 54 58 64 66 64 63 63 62 59 56 53 52 41 49 55 51 45 41 33 27 30 26 23 22
6 9 12 15 18 21 24 28 34 38 42 45 49 53 54 52 54 53 56 59 62 67 67 63 59 62 61 60 59 55 55 41 61 63 55 54 45 34 39 36 32 28 25
8 9 10 13 15 17 19 22 27 32 39 45 48 52 53 53 54 54 59 65 69 71 70 60 59 62 64 63 61 61 53 51 68 63 62 59 51 41 46 41 36 31 29
15 15 15 15 18 20 22 24 27 30 34 40 44 46 50 52 48 52 60 66 69 67 63 66 69 73 76 73 71 67 56 59 73 69 73 67 57 51 54 46 41 36 33
19 20 21 22 25 26 26 26 26 26 29 34 39 44 46 49 50 51 52 54 62 66 68 74 79 83 85 83 81 73 61 70 74 75 76 71 62 57 60 51 46 41 37
23 25 26 27 29 30 30 30 30 26 25 30 31 36 41 43 48 50 49 46 51 59 75 82 86 90 90 88 84 80 70 75 75 83 82 74 65 64 68 59 51 48 40
22 24 26 27 28 30 33 34 35 35 37 35 28 31 35 38 41 44 44 42 54 65 74 81 85 87 90 91 90 83 81 88 86 82 85 79 70 76 73 65 58 51 45
24 26 28 30 32 33 34 36 37 37 37 37 38 37 32 35 36 38 40 51 63 73 80 86 85 86 84 84 93 90 89 95 87 79 88 84 83 83 79 72 63 56 51
24 26 29 30 32 33 35 36 37 38 39 39 38 37 37 37 38 43 49 55 64 77 84 88 92 91 89 87 93 102 103 107 93 87 91 91 82 87 85 77 71 63 57
27 29 31 33 35 36 37 38 39 40 42 42 41 38 36 39 48 49 49 54 61 71 85 92 95 99 96 95 91 106 107 106 101 97 91 99 85 91 89 83 75 68 60
30 33 35 38 40 41 42 42 42 43 43 44 44 43 39 38 42 50 58 63 65 66 69 79 93 99 99 96 96 98 107 110 100 104 100 100 89 92 93 85 78 73 66
35 36 38 40 42 44 45 46 46 47 47 47 48 49 48 49 49 48 50 54 59 64 73 76 81 92 97 101 97 96 98 97 97 96 104 102 97 89 94 87 83 78 70
42 45 47 49 50 51 53 54 54 54 54 55 55 55 55 54 54 53 54 55 57 61 61 63 77 83 86 91 94 95 97 95 94 95 94 96 94 88 91 86 87 77 71
52 53 55 57 59 60 60 61 61 61 61 61 62 62 60 58 57 57 56 56 58 61 64 67 70 72 72 81 88 89 88 89 90 87 87 92 94 90 90 86 86 77 72
56 56 55 56 56 56 57 58 59 60 61 61 62 62 62 61 60 58 57 56 57 58 60 64 68 67 68 70 77 80 81 80 83 84 82 86 90 90 87 84 82 77 71
Wind_Direction_500mb
232 234 238 240 242 241 240 241 240 240 238 237 240 242 245 242 247 240 241 249 249 250 247 248 250 250 262 243 243 240 235 224 225 221 232 240 243 241 261 281 329 350 355
229 232 236 238 239 243 245 246 245 241 243 243 246 244 244 242 242 239 236 246 245 246 244 244 245 257 241 243 241 234 227 224 225 227 225 227 230 228 242 262 296 331 343
226 227 230 235 240 244 248 249 250 248 249 250 249 249 249 248 239 235 235 239 250 240 240 246 249 243 243 238 230 224 225 227 224 220 219 217 217 224 236 257 303 321 339
228 233 237 241 246 249 250 250 250 252 251 248 248 245 246 243 233 232 234 244 238 237 243 244 245 243 237 230 224 225 226 225 220 214 214 214 218 227 239 263 304 317 332
237 245 247 249 250 252 254 252 251 249 246 242 241 240 235 230 231 238 242 244 241 241 242 242 240 236 231 226 226 225 223 220 216 216 212 214 219 221 241 286 307 324 333
246 247 249 249 249 251 252 252 251 250 247 246 241 236 230 232 232 234 244 247 245 243 244 245 241 233 229 228 226 221 217 218 220 218 216 216 219 236 257 292 312 326 340
254 247 245 247 248 250 248 249 247 244 242 237 240 241 235 237 240 245 246 246 247 250 250 244 235 229 228 228 226 223 219 219 219 218 217 219 221 234 258 282 318 329 336
255 250 252 253 253 252 250 249 246 245 241 237 232 233 239 241 244 248 250 250 248 251 246 240 236 234 232 230 227 224 219 217 216 219 219 221 226 232 244 270 303 318 330
263 259 258 258 258 259 258 256 253 252 247 246 246 243 246 245 246 248 250 249 246 245 240 236 234 234 233 230 227 223 219 216 216 221 225 225 226 233 242 270 294 316 321
255 255 257 259 262 266 270 269 266 255 253 249 249 253 252 252 255 255 253 247 243 239 236 233 234 234 234 232 229 225 221 221 221 232 228 226 227 229 244 260 283 301 316
264 265 264 265 265 263 259 262 264 258 256 255 257 258 260 259 259 256 254 249 242 239 238 237 237 237 235 234 229 227 226 223 238 238 229 228 230 229 238 257 267 282 296
275 275 276 277 279 276 269 264 260 261 261 261 262 262 261 262 258 255 253 248 244 241 241 243 242 240 239 236 230 229 227 226 247 236 231 229 231 230 245 252 260 270 285
317 307 304 301 298 292 283 274 267 265 264 265 264 264 264 263 260 257 254 250 247 243 243 244 244 243 241 239 232 230 231 238 248 237 236 234 231 231 247 251 257 265 278
21 4 347 333 319 307 295 285 279 276 273 270 268 269 271 266 262 260 256 251 246 243 242 242 240 241 241 240 235 232 236 242 248 241 244 236 232 238 246 248 252 259 271
13 4 355 352 336 325 312 306 301 291 278 274 274 273 274 275 276 271 264 259 258 256 249 244 239 236 236 234 229 230 235 244 248 247 241 235 232 241 246 245 248 254 263
6 3 357 353 348 342 335 330 317 301 289 282 279 279 279 280 277 272 271 269 262 256 254 249 243 241 240 239 233 232 243 255 246 251 243 239 237 244 247 246 249 254 260
355 352 350 349 344 340 336 330 323 314 304 298 289 283 280 276 275 273 271 268 264 255 253 252 249 247 246 245 239 238 252 256 247 252 246 241 241 247 247 245 248 252 256
359 353 351 347 343 338 334 331 330 326 323 320 307 296 288 285 284 282 276 262 254 254 253 253 254 255 253 249 244 241 255 255 246 249 246 242 247 247 245 246 247 251 253
355 351 347 345 340 337 335 334 333 331 328 324 323 318 307 295 290 285 275 258 257 256 258 259 258 258 258 254 250 247 256 262 252 247 246 242 251 245 244 244 245 246 249
6 2 354 350 345 340 337 333 331 328 325 324 323 321 314 306 293 284 274 266 261 262 264 264 266 264 262 257 252 250 257 264 253 243 246 247 250 244 244 244 244 245 249
353 348 343 339 335 334 332 330 330 328 326 322 320 317 311 303 300 296 289 282 276 272 269 271 271 272 270 265 260 254 258 265 261 250 245 249 246 244 244 243 243 245 245
339 336 334 332 330 329 327 324 323 321 320 318 316 313 307 293 284 283 287 289 290 288 285 281 277 277 278 276 275 267 261 265 266 260 249 250 244 243 243 241 243 245 245
332 329 328 326 325 324 323 322 321 319 316 314 312 310 308 302 296 290 285 284 284 285 286 286 282 277 279 281 282 280 278 274 274 272 260 253 246 240 242 241 243 242 244
322 321 319 317 316 315 315 315 314 314 313 311 310 308 307 303 299 293 287 281 278 277 274 279 283 283 283 282 282 283 285 285 277 274 265 256 249 243 240 241 241 241 244
314 312 310 310 309 309 308 307 307 308 308 308 308 307 306 303 301 299 297 293 287 283 281 277 273 273 277 281 283 282 281 281 279 275 268 258 251 239 239 240 239 239 240
306 305 305 304 304 305 305 306 307 308 309 309 308 307 305 304 302 300 298 295 294 291 286 283 282 279 275 274 275 275 276 275 273 269 266 260 252 243 238 235 236 237 237
Wind_Speed_850mb
72 77 75 70 68 66 66 68 66 65 60 60 59 58 57 60 61 62 55 56 52 50 50 48 46 46 42 40 36 34 30 32 35 33 29 24 16 11 8 7 7 10 16
55 58 59 57 57 58 59 62 61 59 60 60 63 66 63 64 62 65 59 60 57 54 54 50 50 47 42 42 34 31 31 32 34 31 28 22 18 16 12 9 9 11 15
38 43 46 49 50 50 52 54 54 55 57 59 57 62 61 63 61 61 59 56 54 54 55 55 51 45 45 39 34 34 33 34 32 28 25 23 23 17 13 8 11 15 19
31 35 39 41 44 46 48 51 56 58 58 56 55 53 56 49 60 57 53 53 51 53 54 51 48 45 41 37 37 36 35 35 32 28 26 25 21 16 11 8 9 16 21
27 34 35 38 40 44 45 45 46 47 46 47 50 48 47 54 56 52 53 53 54 54 55 53 49 45 44 42 40 37 36 36 33 29 27 24 19 15 9 9 11 16 21
28 30 31 33 34 36 37 37 40 42 45 47 45 45 50 50 57 54 54 53 57 58 58 55 51 49 49 45 42 40 38 35 33 30 26 22 17 11 9 9 11 14 17
30 30 32 31 33 33 34 36 39 41 41 39 43 50 50 49 51 55 56 57 60 62 59 56 55 53 51 49 46 43 42 38 34 30 26 21 16 13 10 10 13 17 21
29 33 34 35 36 38 39 41 41 42 43 44 49 55 52 53 56 56 57 58 60 62 59 57 55 53 53 51 48 46 44 40 38 34 29 25 20 16 13 10 11 16 21
32 38 42 42 41 42 43 41 42 42 42 43 49 52 54 55 57 57 59 59 61 62 60 58 57 55 53 51 49 49 46 43 39 33 32 28 23 21 16 12 13 16 20
44 43 44 43 43 41 39 40 41 42 44 46 51 54 55 55 57 57 56 57 60 63 63 61 60 58 55 53 51 51 47 45 37 39 38 34 29 24 18 14 16 16 20
34 38 38 39 38 37 38 40 40 42 45 49 52 54 57 55 55 55 56 55 58 64 65 65 64 62 60 56 53 52 48 42 39 48 44 38 34 28 21 21 21 19 19
18 22 23 25 28 31 35 37 39 41 43 47 49 54 54 56 54 53 56 54 58 64 66 64 63 63 62 59 56 53 52 41 49 55 51 45 41 33 27 30 26 23 22
6 9 12 15 18 21 24 28 34 38 42 45 49 53 54 52 54 53 56 59 62 67 67 63 59 62 61 60 59 55 55 41 61 63 55 54 45 34 39 36 32 28 25
8 9 10 13 15 17 19 22 27 32 39 45 48 52 53 53 54 54 59 65 69 71 70 60 59 62 64 63 61 61 53 51 68 63 62 59 51 41 46 41 36 31 29
15 15 15 15 18 20 22 24 27 30 34 40 44 46 50 52 48 52 60 66 69 67 63 66 69 73 76 73 71 67 56 59 73 69 73 67 57 51 54 46 41 36 33
19 20 21 22 25 26 26 26 26 26 29 34 39 44 46 49 50 51 52 54 62 66 68 74 79 83 85 83 81 73 61 70 74 75 76 71 62 57 60 51 46 41 37
23 25 26 27 29 30 30 30 30 26 25 30 31 36 41 43 48 50 49 46 51 59 75 82 86 90 90 88 84 80 70 75 75 83 82 74 65 64 68 59 51 48 40
22 24 26 27 28 30 33 34 35 35 37 35 28 31 35 38 41 44 44 42 54 65 74 81 85 87 90 91 90 83 81 88 86 82 85 79 70 76 73 65 58 51 45
24 26 28 30 32 33 34 36 37 37 37 37 38 37 32 35 36 38 40 51 63 73 80 86 85 86 84 84 93 90 89 95 87 79 88 84 83 83 79 72 63 56 51
24 26 29 30 32 33 35 36 37 38 39 39 38 37 37 37 38 43 49 55 64 77 84 88 92 91 89 87 93 102 103 107 93 87 91 91 82 87 85 77 71 63 57
27 29 31 33 35 36 37 38 39 40 42 42 41 38 36 39 48 49 49 54 61 71 85 92 95 99 96 95 91 106 107 106 101 97 91 99 85 91 89 83 75 68 60
30 33 35 38 40 41 42 42 42 43 43 44 44 43 39 38 42 50 58 63 65 66 69 79 93 99 99 96 96 98 107 110 100 104 100 100 89 92 93 85 78 73 66
35 36 38 40 42 44 45 46 46 47 47 47 48 49 48 49 49 48 50 54 59 64 73 76 81 92 97 101 97 96 98 97 97 96 104 102 97 89 94 87 83 78 70
42 45 47 49 50 51 53 54 54 54 54 55 55 55 55 54 54 53 54 55 57 61 61 63 77 83 86 91 94 95 97 95 94 95 94 96 94 88 91 86 87 77 71
52 53 55 57 59 60 60 61 61 61 61 61 62 62 60 58 57 57 56 56 58 61 64 67 70 72 72 81 88 89 88 89 90 87 87 92 94 90 90 86 86 77 72
56 56 55 56 56 56 57 58 59 60 61 61 62 62 62 61 60 58 57 56 57 58 60 64 68 67 68 70 77 80 81 80 83 84 82 86 90 90 87 84 82 77 71
Wind_Direction_850mb
232 234 238 240 242 241 240 241 240 240 238 237 240 242 245 242 247 240 241 249 249 250 247 248 250 250 262 243 243 240 235 224 225 221 232 240 243 241 261 281 329 350 355
229 232 236 238 239 243 245 246 245 241 243 243 246 244 244 242 242 239 236 246 245 246 244 244 245 257 241 243 241 234 227 224 225 227 225 227 230 228 242 262 296 331 343
226 227 230 235 240 244 248 249 250 248 249 250 249 249 249 248 239 235 235 239 250 240 240 246 249 243 243 238 230 224 225 227 224 220 219 217 217 224 236 257 303 321 339
228 233 237 241 246 249 250 250 250 252 251 248 248 245 246 243 233 232 234 244 238 237 243 244 245 243 237 230 224 225 226 225 220 214 214 214 218 227 239 263 304 317 332
237 245 247 249 250 252 254 252 251 249 246 242 241 240 235 230 231 238 242 244 241 241 242 242 240 236 231 226 226 225 223 220 216 216 212 214 219 221 241 286 307 324 333
246 247 249 249 249 251 252 252 251 250 247 246 241 236 230 232 232 234 244 247 245 243 244 245 241 233 229 228 226 221 217 218 220 218 216 216 219 236 257 292 312 326 340
254 247 245 247 248 250 248 249 247 244 242 237 240 241 235 237 240 245 246 246 247 250 250 244 235 229 228 228 226 223 219 219 219 218 217 219 221 234 258 282 318 329 336
255 250 252 253 253 252 250 249 246 245 241 237 232 233 239 241 244 248 250 250 248 251 246 240 236 234 232 230 227 224 219 217 216 219 219 221 226 232 244 270 303 318 330
263 259 258 258 258 259 258 256 253 252 247 246 246 243 246 245 246 248 250 249 246 245 240 236 234 234 233 230 227 223 219 216 216 221 225 225 226 233 242 270 294 316 321
255 255 257 259 262 266 270 269 266 255 253 249 249 253 252 252 255 255 253 247 243 239 236 233 234 234 234 232 229 225 221 221 221 232 228 226 227 229 244 260 283 301 316
264 265 264 265 265 263 259 262 264 258 256 255 257 258 260 259 259 256 254 249 242 239 238 237 237 237 235 234 229 227 226 223 238 238 229 228 230 229 238 257 267 282 296
275 275 276 277 279 276 269 264 260 261 261 261 262 262 261 262 258 255 253 248 244 241 241 243 242 240 239 236 230 229 227 226 247 236 231 229 231 230 245 252 260 270 285
317 307 304 301 298 292 283 274 267 265 264 265 264 264 264 263 260 257 254 250 247 243 243 244 244 243 241 239 232 230 231 238 248 237 236 234 231 231 247 251 257 265 278
21 4 347 333 319 307 295 285 279 276 273 270 268 269 271 266 262 260 256 251 246 243 242 242 240 241 241 240 235 232 236 242 248 241 244 236 232 238 246 248 252 259 271
13 4 355 352 336 325 312 306 301 291 278 274 274 273 274 275 276 271 264 259 258 256 249 244 239 236 236 234 229 230 235 244 248 247 241 235 232 241 246 245 248 254 263
6 3 357 353 348 342 335 330 317 301 289 282 279 279 279 280 277 272 271 269 262 256 254 249 243 241 240 239 233 232 243 255 246 251 243 239 237 244 247 246 249 254 260
355 352 350 349 344 340 336 330 323 314 304 298 289 283 280 276 275 273 271 268 264 255 253 252 249 247 246 245 239 238 252 256 247 252 246 241 241 247 247 245 248 252 256
359 353 351 347 343 338 334 331 330 326 323 320 307 296 288 285 284 282 276 262 254 254 253 253 254 255 253 249 244 241 255 255 246 249 246 242 247 247 245 246 247 251 253
355 351 347 345 340 337 335 334 333 331 328 324 323 318 307 295 290 285 275 258 257 256 258 259 258 258 258 254 250 247 256 262 252 247 246 242 251 245 244 244 245 246 249
6 2 354 350 345 340 337 333 331 328 325 324 323 321 314 306 293 284 274 266 261 262 264 264 266 264 262 257 252 250 257 264 253 243 246 247 250 244 244 244 244 245 249
353 348 343 339 335 334 332 330 330 328 326 322 320 317 311 303 300 296 289 282 276 272 269 271 271 272 270 265 260 254 258 265 261 250 245 249 246 244 244 243 243 245 245
339 336 334 332 330 329 327 324 323 321 320 318 316 313 307 293 284 283 287 289 290 288 285 281 277 277 278 276 275 267 261 265 266 260 249 250 244 243 243 241 243 245 245
332 329 328 326 325 324 323 322 321 319 316 314 312 310 308 302 296 290 285 284 284 285 286 286 282 277 279 281 282 280 278 274 274 272 260 253 246 240 242 241 243 242 244
322 321 319 317 316 315 315 315 314 314 313 311 310 308 307 303 299 293 287 281 278 277 274 279 283 283 283 282 282 283 285 285 277 274 265 256 249 243 240 241 241 241 244
314 312 310 310 309 309 308 307 307 308 308 308 308 307 306 303 301 299 297 293 287 283 281 277 273 273 277 281 283 282 281 281 279 275 268 258 251 239 239 240 239 239 240
306 305 305 304 304 305 305 306 307 308 309 309 308 307 305 304 302 300 298 295 294 291 286 283 282 279 275 274 275 275 276 275 273 269 266 260 252 243 238 235 236 237 237